Find STARLINK-37917

NORAD ID: 100034 Int'l Des: 2026-161G Owner: SPXS Country: US Constellation: starlink operational

現在のビュー

3D地球を読み込み中...

About STARLINK-37917

STARLINK-37917 (NORAD 100034) is a starlink constellation satellite (v2 mini) launched Jul 14, 2026 by SPXS of US. with a mass of 575.00 kg.

次回通過

Passes for default location (London). Set your location on the main map for personalized predictions.

高度履歴

Loading altitude history...

軌道要素

1 A0034U 26161G 26235.41601929 .00052214 00000-0 93949-3 0 9994
2 A0034 53.1593 129.3852 0001427 93.2468 266.8704 15.49342125 6297
Epoch: Aug 23, 2026 • Age: 19 hours

現在のステータス

高度 420.3 km
遠地点 / 近地点 N/A
速度 7.66 km/s
衛星直下点 35.15°N, 135.65°W
打ち上げ日 Jul 14, 2026
運用期間 0.1 years
タイプ internet

技術仕様

分類 Payload
質量 575.00 kg
乾燥質量 530.00 kg
総質量 575.00 kg
長さ 0.30 m
直径 4.10 m
スパン 29.00 m
形状 Box + pan
製造者 SPXS
バスタイプ Starlink V2MO
フェーズステータス In Orbit
所有者/国 SPXS/US

Most Searched